Location: Sierra de Malag�n
(40.6455°N, 4.3526°W)
Time: 04:11:46
(UTC+00:00)

Daily predictions for brighter satellites

Satellite Brightness Start Highest point End
(mag) Time Altitude Azimuth Time Altitude Azimuth Time Altitude Azimuth
SJ 16-02 4.3 04:13:56 10° SE 04:16:07 14° E 04:18:19 10° ENE
Cosmos 1634 Rocket 4.2 04:34:54 66° SE 04:34:54 66° SE 04:40:17 10° SSE
ATLAS 5 CENTAUR R/B 3.6 04:41:25 21° ENE 04:41:25 21° ENE 04:43:01 10° NE
Cosmos 1354 Rocket 4.4 04:53:50 58° NNE 04:53:50 58° NNE 04:58:07 10° NNE
CENTAUR R/B 4.2 04:59:09 20° N 04:59:09 20° N 05:02:43 10° NNE
DELTA 2 R/B (1) 3.5 04:59:49 81° SSE 04:59:49 81° SSE 05:05:16 10° E
SL-19 R/B 4.5 05:00:36 10° SSE 05:06:07 68° ENE 05:09:39 23° N
CZ-3 R/B 4.3 04:52:10 10° SW 05:07:10 25° S 05:13:25 10° ESE
DNEPR-1 R/B 4.2 05:14:48 56° SW 05:14:48 56° SW 05:20:28 10° SSE
Cosmos 1328 Rocket 3.7 05:16:03 59° S 05:16:03 59° S 05:19:35 10° S
MOS 1-B Rocket 3.8 05:13:11 10° SSE 05:19:21 85° WSW 05:23:07 23° NNW
Cosmos 1833 4.2 05:22:59 53° WNW 05:23:58 61° WSW 05:29:37 10° S
Meteor 1-27 Rocket 4.4 05:18:34 10° N 05:24:10 55° ENE 05:29:50 10° SSE
Meteor 2-6 Rocket 4.0 05:24:13 47° NW 05:25:35 64° W 05:30:55 10° S
Cosmos 783 Rocket 4.4 05:25:12 37° NNW 05:27:18 87° WSW 05:32:30 10° SSE
BREEZE-M DEB (TANK) 3.6 05:26:09 46° W 05:27:39 65° SSW 05:44:21 10° SE
ATLAS 3B R/B 2.6 05:23:10 10° SSW 05:29:39 84° ESE 05:36:29 10° NE
Cosmos 2297 Rocket 4.4 05:25:35 10° N 05:29:40 20° NE 05:33:44 10° E
Cosmos 2369 Rocket 4.0 05:33:45 15° NNW 05:33:45 15° NNW 05:35:04 10° N
Landsat 5 4.1 05:28:15 10° SSE 05:32:40 61° ENE 05:36:39 12° N
Cosmos 1340 Rocket 3.4 05:29:29 10° S 05:33:20 56° E 05:37:16 10° NNE
Cosmos 1777 Rocket 3.8 05:28:54 10° SSW 05:34:06 80° WNW 05:39:23 10° NNE
COSMO-SKYMED 1 2.5 05:30:16 10° SSE 05:34:36 87° E 05:37:10 24° NNW
Cosmos 773 Rocket 3.8 05:32:06 30° NNW 05:34:44 84° WSW 05:39:52 10° SSE
SL-27 R/B 2.3 05:36:24 74° SSW 05:36:24 74° SSW 05:39:40 10° SSE
CZ-2C R/B 2.6 05:31:02 10° SSE 05:36:30 87° WSW 05:41:52 10° NNW
SL-8 R/B 4.0 05:36:04 45° WSW 05:36:47 49° SW 05:41:23 10° SE
H-2A R/B 4.4 05:39:25 20° SSW 05:39:25 20° SSW 05:40:43 10° SSW
Cosmos 1408 Rocket 3.4 05:35:38 10° SSW 05:39:53 67° W 05:44:11 10° N
Helios 1B 4.4 05:36:39 10° S 05:40:59 78° WSW 05:43:22 26° NNW
SJ-12 3.9 05:39:12 10° N 05:43:15 55° WNW 05:47:16 10° SSW
Lacrosse 5 3.7 05:42:16 10° S 05:46:43 31° SE 05:51:11 10° ENE
Meteor 1-31 Rocket 2.7 05:48:00 10° N 05:51:53 60° WNW 05:55:44 10° SSW
Cosmos 1743 Rocket 3.5 05:47:47 10° S 05:52:09 85° E 05:56:31 10° N
Envisat 3.1 05:48:49 10° N 05:53:44 50° WNW 05:58:36 10° SW
SJ 16-02 1.4 05:49:58 10° SW 05:54:12 50° WNW 05:58:28 10° N
Meteor 2-15 4.4 05:48:29 10° NNW 05:54:26 60° W 06:00:22 10° S
Cosmos 2279 Rocket 4.4 05:51:09 14° NNW 05:55:56 39° W 06:01:35 10° SSW
CZ-2C R/B 3.5 05:54:36 10° NNE 05:59:34 62° E 06:04:47 10° S
SL-4 R/B 1.5 05:59:54 27° WSW 06:01:43 84° NW 06:05:23 10° NE
USA 215 3.9 05:56:08 10° ESE 06:02:21 49° NNE 06:07:53 13° NW
Nadezhda 4 Rocket 3.9 05:56:25 10° SSW 06:02:32 64° W 06:08:46 10° N
Cosmos 1515 Rocket 3.7 06:00:09 19° NNW 06:02:55 46° W 06:07:02 10° SSW
Lacrosse 4 Rocket 4.2 06:02:29 10° NNE 06:04:33 13° NE 06:06:37 10° ENE
Cosmos 2227 Rocket 4.1 06:01:33 10° N 06:06:16 26° NE 06:10:57 10° ESE
IRAS Rocket 4.5 06:01:32 10° SSE 06:06:59 71° ENE 06:12:28 10° N
Cosmos 1939 Rocket 4.0 06:06:08 10° NNE 06:09:52 45° E 06:13:34 10° S
Cosmos 2228 Rocket 3.3 06:07:55 10° N 06:12:27 75° E 06:17:00 10° SSE
Okean 1 4.3 06:09:50 10° N 06:13:40 47° E 06:17:28 10° SSE
Cosmos 1602 3.5 06:13:00 10° SSW 06:16:47 75° W 06:20:37 10° N
Sich 1 3.1 06:13:09 10° S 06:17:24 77° E 06:21:41 10° N
Cosmos 1500 Rocket 3.9 06:14:30 10° SSW 06:18:47 45° WNW 06:23:05 10° N
Meteor PRIRODA 3.5 06:15:59 10° N 06:19:36 79° WNW 06:23:14 10° SSW
DMSP B5D2-2 4.0 06:14:28 10° SSE 06:19:41 88° W 06:24:55 10° NNW
Cosmos 990 Rocket 4.4 06:15:58 10° S 06:21:10 70° ESE 06:26:23 10° NNE
BREEZE M DEB (TANK) 3.8 06:21:00 15° NNW 06:22:20 19° N 06:24:04 10° ENE
Meteor 1-20 Rocket 4.2 06:17:33 10° SSW 06:23:07 69° W 06:28:49 10° N
COSMOS 2487 2.5 06:20:59 16° NNW 06:23:24 49° WSW 06:26:38 10° S
Cosmos 1092 Rocket 4.0 06:17:16 10° SSW 06:23:31 76° W 06:29:52 10° N
NOAA 11 4.2 06:18:23 10° N 06:23:48 63° WNW 06:29:12 10° SSW
ATLAS 5 CENTAUR R/B 2.7 06:22:59 19° WNW 06:23:59 20° NW 06:27:12 10° N
Cosmos 1500 3.2 06:20:28 10° S 06:24:16 83° E 06:28:04 10° N
DMSP B5D1-3 4.5 06:24:38 10° S 06:29:46 76° WSW 06:34:57 10° NNW
H-2A R/B 2.3 06:25:51 10° SSE 06:30:07 74° ENE 06:34:32 10° N
FALCON 9 R/B 4.4 06:12:01 14° W 06:30:43 46° SW 06:37:15 10° SE
Cosmos 1805 Rocket 3.6 06:27:11 10° SSW 06:31:28 56° W 06:35:46 10° N
Cosmos 1697 Rocket 4.3 06:27:34 10° S 06:32:45 39° ESE 06:37:57 10° NE
Cosmos 1707 Rocket 4.1 06:30:36 10° N 06:35:01 62° E 06:39:26 10° SSE
CZ-4C R/B 3.9 06:35:26 10° SSW 06:37:59 23° W 06:40:23 11° NW
Cosmos 44 4.2 06:33:17 10° SSW 06:38:33 60° ESE 06:43:44 10° NE
Cosmos 1515 4.1 06:35:05 10° NNW 06:38:40 40° W 06:42:14 10° SSW
Meteor 1-19 Rocket 4.1 06:34:50 10° NNW 06:40:23 81° W 06:45:47 10° S
Meteor 2-14 Rocket 4.4 06:35:48 10° SSW 06:41:55 73° W 06:48:05 10° N
Cosmos 2219 4.0 06:40:14 10° NNW 06:45:47 52° ENE 06:51:19 10° SE
DELTA 2 R/B (1) 4.0 06:40:35 10° W 06:46:02 58° SSW 06:51:27 10° ESE
FALCON 9 DEB 4.3 06:46:04 10° NNW 06:48:32 25° NNE 06:50:59 10° E
FALCON 9 DEB 4.4 06:47:52 10° NNW 06:50:15 23° NNE 06:52:38 10° E
Cosmos 1666 2.6 06:49:08 10° S 06:52:54 83° W 06:56:41 10° N
AQUARIUS 4.1 06:52:40 10° N 06:57:10 76° WNW 07:01:38 10° SSW
